DL6MAA-11 Weather Reports


time (UTC)temp
C
wind
direction
speed
KPH
gust
KPH
rain 1hr
cm
rain 24hr
cm
rain mn
cm
humidity
%
barometer
mb
20260502130702 23 24 0.0 0.0 0.00 0.00 0.00 33 1017.9
20260502130213 23 351 0.0 0.0 0.00 0.00 0.00 35 1017.9
20260502123712 23 293 1.6 0.0 0.00 0.00 0.00 35 1018.2
20260502123216 23 277 1.6 0.0 0.00 0.00 0.00 33 1018.2
20260502122705 23 360 3.2 0.0 0.00 0.00 0.00 31 1018.0
20260502122211 24 281 3.2 0.0 0.00 0.00 0.00 35 1018.0
20260502121713 24 227 1.6 0.0 0.00 0.00 0.00 32 1018.0
20260502121206 24 178 3.2 0.0 0.00 0.00 0.00 31 1018.1
20260502120700 23 287 1.6 0.0 0.00 0.00 0.00 34 1018.1
20260502120215 23 247 3.2 0.0 0.00 0.00 0.00 35 1018.1
20260502115710 23 149 3.2 0.0 0.00 0.00 0.00 35 1018.5
20260502115201 23 252 0.0 0.0 0.00 0.00 0.00 35 1018.5
20260502114706 23 175 0.0 0.0 0.00 0.00 0.00 35 1018.5
20260502114209 23 242 0.0 0.0 0.00 0.00 0.00 34 1018.6
20260502113714 23 296 4.8 0.0 0.00 0.00 0.00 36 1018.6
20260502113218 23 0.0 0.0 0.00 0.00 0.00 34 1018.6
20260502112720 23 360 0.0 0.0 0.00 0.00 0.00 37 1018.9
20260502112210 23 298 0.0 0.0 0.00 0.00 0.00 37 1018.9
20260502111703 23 269 1.6 0.0 0.00 0.00 0.00 36 1018.9
20260502111202 23 226 3.2 0.0 0.00 0.00 0.00 36 1018.9
20260502110721 23 269 1.6 0.0 0.00 0.00 0.00 38 1018.9
20260502110207 23 296 1.6 0.0 0.00 0.00 0.00 38 1018.9
20260502105708 22 342 1.6 0.0 0.00 0.00 0.00 37 1019.0
20260502105211 23 203 1.6 0.0 0.00 0.00 0.00 34 1019.0
20260502104713 22 203 3.2 0.0 0.00 0.00 0.00 35 1019.0
20260502104219 23 360 3.2 0.0 0.00 0.00 0.00 37 1019.1
20260502103702 22 296 4.8 0.0 0.00 0.00 0.00 38 1019.1
20260502103204 22 269 1.6 0.0 0.00 0.00 0.00 36 1019.1
20260502102719 22 291 3.2 0.0 0.00 0.00 0.00 35 1019.5
20260502102208 22 276 4.8 0.0 0.00 0.00 0.00 36 1019.5
20260502101713 22 360 4.8 0.0 0.00 0.00 0.00 36 1019.5
20260502101217 22 296 3.2 0.0 0.00 0.00 0.00 34 1019.4
20260502100702 22 286 4.8 0.0 0.00 0.00 0.00 36 1019.4
20260502100221 22 360 3.2 0.0 0.00 0.00 0.00 36 1019.4
20260502091214 20 313 1.6 0.0 0.00 0.00 0.00 42 1019.9
20260502090721 20 252 0.0 0.0 0.00 0.00 0.00 42 1019.9
20260502090206 19 296 1.6 0.0 0.00 0.00 0.00 43 1019.9
20260502071221 13 141 0.0 0.0 0.00 0.00 0.00 54 1020.6
20260502070706 13 142 0.0 0.0 0.00 0.00 0.00 53 1020.6
20260502070213 13 360 0.0 0.0 0.00 0.00 0.00 59 1020.6
20260502065716 13 143 0.0 0.0 0.00 0.00 0.00 62 1020.8
20260502065218 12 142 0.0 0.0 0.00 0.00 0.00 65 1020.8
20260502064719 11 360 0.0 0.0 0.00 0.00 0.00 65 1020.8
20260502064220 11 142 0.0 0.0 0.00 0.00 0.00 64 1019.9
20260502063706 11 142 0.0 0.0 0.00 0.00 0.00 65 1019.9
20260502063209 11 142 0.0 0.0 0.00 0.00 0.00 65 1019.9
20260502062716 10 142 0.0 0.0 0.00 0.00 0.00 65 1020.0
20260502062219 10 142 0.0 0.0 0.00 0.00 0.00 67 1020.0
20260502061708 10 169 0.0 0.0 0.00 0.00 0.00 67 1020.0
20260502061209 9 168 0.0 0.0 0.00 0.00 0.00 68 1019.8
20260502060708 9 168 0.0 0.0 0.00 0.00 0.00 69 1019.8
20260502060206 8 170 0.0 0.0 0.00 0.00 0.00 69 1019.8
20260502055709 8 169 1.6 0.0 0.00 0.00 0.00 72 1020.0
20260502055215 7 171 1.6 0.0 0.00 0.00 0.00 72 1020.0
20260502054703 7 180 0.0 0.0 0.00 0.00 0.00 72 1020.0
20260502054212 7 189 1.6 0.0 0.00 0.00 0.00 73 1020.3
20260502053704 6 182 0.0 0.0 0.00 0.00 0.00 75 1020.3
20260502053205 6 165 0.0 0.0 0.00 0.00 0.00 74 1020.3
20260502052706 5 173 1.6 0.0 0.00 0.00 0.00 75 1020.4
20260502052218 5 164 0.0 0.0 0.00 0.00 0.00 76 1020.4
20260502051703 4 153 0.0 0.0 0.00 0.00 0.00 76 1020.4
20260502051203 4 152 0.0 0.0 0.00 0.00 0.00 77 1020.4
20260502050712 3 155 0.0 0.0 0.00 0.00 0.00 80 1020.4
20260502050217 2 163 0.0 0.0 0.00 0.00 0.00 81 1020.4
20260502045712 2 149 0.0 0.0 0.00 0.00 0.00 80 1020.4
20260502045215 2 149 0.0 0.0 0.00 0.00 0.00 79 1020.4
20260502044704 2 156 0.0 0.0 0.00 0.00 0.00 79 1020.4
20260502044209 2 98 0.0 0.0 0.00 0.00 0.00 79 1020.4
20260502043715 2 75 0.0 0.0 0.00 0.00 0.00 78 1020.4
20260502043202 2 76 0.0 0.0 0.00 0.00 0.00 77 1020.4
20260502042705 2 76 0.0 0.0 0.00 0.00 0.00 77 1020.4
20260502042201 1 75 0.0 0.0 0.00 0.00 0.00 76 1020.4
20260502041707 2 75 0.0 0.0 0.00 0.00 0.00 76 1020.4
20260502041210 2 75 0.0 0.0 0.00 0.00 0.00 75 1020.2
20260502040709 2 75 0.0 0.0 0.00 0.00 0.00 75 1020.2
20260502040209 2 75 0.0 0.0 0.00 0.00 0.00 75 1020.2
20260502035721 2 75 0.0 0.0 0.00 0.00 0.00 75 1020.3
20260502035220 2 360 0.0 0.0 0.00 0.00 0.00 75 1020.3
20260502034717 2 75 0.0 0.0 0.00 0.00 0.00 75 1020.3
20260502034200 2 75 0.0 0.0 0.00 0.00 0.00 75 1020.3
20260502033709 2 75 0.0 0.0 0.00 0.00 0.00 75 1020.3
20260502033214 2 75 0.0 0.0 0.00 0.00 0.00 74 1020.3
20260502032715 2 75 0.0 0.0 0.00 0.00 0.00 74 1020.2
20260502032210 2 75 0.0 0.0 0.00 0.00 0.00 74 1020.2
20260502031715 2 75 0.0 0.0 0.00 0.00 0.00 73 1020.2
20260502031213 2 360 0.0 0.0 0.00 0.00 0.00 73 1020.2
20260502030717 2 75 0.0 0.0 0.00 0.00 0.00 73 1020.2
20260502030205 2 75 0.0 0.0 0.00 0.00 0.00 73 1020.2
20260502025710 2 75 0.0 0.0 0.00 0.00 0.00 72 1020.3
20260502025221 2 75 0.0 0.0 0.00 0.00 0.00 72 1020.3
20260502024714 2 360 0.0 0.0 0.00 0.00 0.00 72 1020.3
20260502024210 2 75 0.0 0.0 0.00 0.00 0.00 72 1020.5
20260502023705 2 75 0.0 0.0 0.00 0.00 0.00 72 1020.5
20260502023219 3 75 0.0 0.0 0.00 0.00 0.00 71 1020.5
20260502022717 3 75 0.0 0.0 0.00 0.00 0.00 71 1020.4
20260502022222 3 75 0.0 0.0 0.00 0.00 0.00 71 1020.4
20260502021707 3 75 0.0 0.0 0.00 0.00 0.00 70 1020.4
20260502021215 3 75 0.0 0.0 0.00 0.00 0.00 70 1020.4
20260502020718 3 75 0.0 0.0 0.00 0.00 0.00 70 1020.4
20260502020220 3 75 0.0 0.0 0.00 0.00 0.00 69 1020.4
20260502015705 3 75 0.0 0.0 0.00 0.00 0.00 69 1020.4
20260502015221 3 360 0.0 0.0 0.00 0.00 0.00 69 1020.4
20260502014700 3 75 0.0 0.0 0.00 0.00 0.00 69 1020.4
20260502014207 3 75 0.0 0.0 0.00 0.00 0.00 68 1020.5
20260502013708 3 75 0.0 0.0 0.00 0.00 0.00 69 1020.5
20260502013214 3 75 0.0 0.0 0.00 0.00 0.00 68 1020.5
20260502012718 3 75 0.0 0.0 0.00 0.00 0.00 68 1020.4
20260502012210 3 360 0.0 0.0 0.00 0.00 0.00 67 1020.4
20260502011706 4 75 0.0 0.0 0.00 0.00 0.00 67 1020.4
20260502011211 4 75 0.0 0.0 0.00 0.00 0.00 66 1020.5
20260502010720 4 75 0.0 0.0 0.00 0.00 0.00 66 1020.5
20260502010205 4 75 0.0 0.0 0.00 0.00 0.00 66 1020.5
20260502005707 4 75 0.0 0.0 0.00 0.00 0.00 66 1020.4
20260502005213 4 75 0.0 0.0 0.00 0.00 0.00 65 1020.4
20260502004700 5 75 0.0 0.0 0.00 0.00 0.00 66 1020.4
20260502004218 5 75 0.0 0.0 0.00 0.00 0.00 66 1020.6
20260502003720 5 75 0.0 0.0 0.00 0.00 0.00 64 1020.6
20260502003205 5 78 0.0 0.0 0.00 0.00 0.00 64 1020.6
20260502002709 5 75 0.0 0.0 0.00 0.00 0.00 64 1020.8
20260502002211 5 75 0.0 0.0 0.00 0.00 0.00 63 1020.8
20260502001716 5 75 0.0 0.0 0.00 0.00 0.00 64 1020.8
20260502001220 5 75 0.0 0.0 0.00 0.00 0.00 63 1020.9
20260502000716 5 75 0.0 0.0 0.00 0.00 0.00 63 1020.9
20260502000218 5 75 0.0 0.0 0.00 0.00 0.00 63 1020.9
20260501235704 6 75 0.0 0.0 0.00 0.00 0.00 63 1020.9
20260501235208 6 75 0.0 0.0 0.00 0.00 0.00 62 1020.9
20260501234711 6 75 0.0 0.0 0.00 0.00 0.00 62 1020.9
20260501234221 6 75 0.0 0.0 0.00 0.00 0.00 61 1020.8
20260501233707 6 75 0.0 0.0 0.00 0.00 0.00 62 1020.8
20260501233206 6 75 0.0 0.0 0.00 0.00 0.00 61 1020.8
20260501232707 6 75 0.0 0.0 0.00 0.00 0.00 61 1020.8
20260501232203 6 75 0.0 0.0 0.00 0.00 0.00 61 1020.8
20260501231718 7 75 0.0 0.0 0.00 0.00 0.00 61 1020.8
20260501231213 7 75 0.0 0.0 0.00 0.00 0.00 60 1021.0
20260501230707 7 75 0.0 0.0 0.00 0.00 0.00 60 1021.0
20260501230209 7 75 0.0 0.0 0.00 0.00 0.00 59 1021.0
20260501225710 7 75 0.0 0.0 0.00 0.00 0.00 59 1021.0
20260501225215 7 75 0.0 0.0 0.00 0.00 0.00 59 1021.0
20260501224715 7 75 0.0 0.0 0.00 0.00 0.00 58 1021.0
20260501224205 7 75 0.0 0.0 0.00 0.00 0.00 58 1021.2
20260501223706 7 75 0.0 0.0 0.00 0.00 0.00 57 1021.2
20260501223218 8 75 0.0 0.0 0.00 0.00 0.00 57 1021.2
20260501222720 8 75 0.0 0.0 0.00 0.00 0.00 57 1021.3
20260501222224 8 83 0.0 0.0 0.00 0.00 0.00 56 1021.3
20260501221711 8 75 0.0 0.0 0.00 0.00 0.00 56 1021.3
20260501221214 8 75 0.0 0.0 0.00 0.00 0.00 56 1021.3
20260501220701 8 75 0.0 0.0 0.00 0.00 0.00 56 1021.3
20260501220207 8 75 0.0 0.0 0.00 0.00 0.00 57 1021.3
20260501215714 8 75 0.0 0.0 0.00 0.00 0.00 56 1021.3
20260501215220 8 75 0.0 0.0 0.00 0.00 0.00 58 1021.3
20260501214705 8 75 0.0 0.0 0.00 0.00 0.00 56 1021.3
20260501214212 9 76 0.0 0.0 0.00 0.00 0.00 56 1021.3
20260501213716 9 75 0.0 0.0 0.00 0.00 0.00 55 1021.3
20260501213214 9 75 0.0 0.0 0.00 0.00 0.00 55 1021.3
20260501212715 10 75 0.0 0.0 0.00 0.00 0.00 54 1022.1
20260501212221 10 75 0.0 0.0 0.00 0.00 0.00 54 1022.1
20260501211705 10 75 0.0 0.0 0.00 0.00 0.00 53 1022.1
20260501211211 10 75 0.0 0.0 0.00 0.00 0.00 52 1021.4
20260501210717 10 75 0.0 0.0 0.00 0.00 0.00 51 1021.4
20260501210221 11 74 0.0 0.0 0.00 0.00 0.00 50 1021.4
20260501205716 11 75 0.0 0.0 0.00 0.00 0.00 50 1021.4
20260501205202 11 75 0.0 0.0 0.00 0.00 0.00 50 1021.4
20260501204705 11 75 0.0 0.0 0.00 0.00 0.00 49 1021.4
20260501204210 11 75 0.0 0.0 0.00 0.00 0.00 50 1021.4
20260501203718 11 75 0.0 0.0 0.00 0.00 0.00 49 1021.4
20260501203223 11 75 0.0 0.0 0.00 0.00 0.00 48 1021.4
20260501202708 12 75 0.0 0.0 0.00 0.00 0.00 48 1022.2
20260501202211 12 75 0.0 0.0 0.00 0.00 0.00 48 1022.2
20260501201716 12 75 0.0 0.0 0.00 0.00 0.00 48 1022.2
20260501201222 12 77 0.0 0.0 0.00 0.00 0.00 48 1021.5
20260501200721 12 76 0.0 0.0 0.00 0.00 0.00 48 1021.5
20260501200209 12 75 0.0 0.0 0.00 0.00 0.00 47 1021.5
20260501195711 12 82 0.0 0.0 0.00 0.00 0.00 47 1021.5
20260501195211 12 76 0.0 0.0 0.00 0.00 0.00 47 1021.5
20260501194709 12 80 0.0 0.0 0.00 0.00 0.00 47 1021.5
20260501194218 13 81 0.0 0.0 0.00 0.00 0.00 47 1021.3
20260501193721 13 66 0.0 0.0 0.00 0.00 0.00 46 1021.3
20260501193219 13 82 0.0 0.0 0.00 0.00 0.00 46 1021.3
20260501192707 13 92 0.0 0.0 0.00 0.00 0.00 45 1022.2
20260501192207 13 67 0.0 0.0 0.00 0.00 0.00 45 1022.2
20260501191707 13 74 0.0 0.0 0.00 0.00 0.00 44 1022.2
20260501191205 14 72 0.0 0.0 0.00 0.00 0.00 44 1021.5
20260501190711 14 67 0.0 0.0 0.00 0.00 0.00 44 1021.5
20260501190211 14 360 0.0 0.0 0.00 0.00 0.00 43 1021.5
20260501185712 15 67 0.0 0.0 0.00 0.00 0.00 43 1021.2
20260501185221 15 80 1.6 0.0 0.00 0.00 0.00 43 1021.2
20260501184705 15 69 1.6 0.0 0.00 0.00 0.00 42 1021.2
20260501184211 15 65 1.6 0.0 0.00 0.00 0.00 42 1021.0
20260501183708 15 89 1.6 0.0 0.00 0.00 0.00 42 1021.0
20260501183216 16 67 0.0 0.0 0.00 0.00 0.00 41 1021.0
20260501182719 16 62 0.0 0.0 0.00 0.00 0.00 41 1021.7
20260501182221 16 60 0.0 0.0 0.00 0.00 0.00 41 1021.7
20260501181713 16 79 1.6 0.0 0.00 0.00 0.00 40 1021.7
20260501181205 16 65 1.6 0.0 0.00 0.00 0.00 40 1021.3
20260501180710 16 56 0.0 0.0 0.00 0.00 0.00 40 1021.3
20260501180218 16 64 0.0 0.0 0.00 0.00 0.00 39 1021.3
20260501175721 17 69 3.2 0.0 0.00 0.00 0.00 39 1021.1
20260501175224 17 61 4.8 0.0 0.00 0.00 0.00 38 1021.1
20260501174715 17 54 3.2 0.0 0.00 0.00 0.00 38 1021.1
20260501174206 17 69 3.2 0.0 0.00 0.00 0.00 38 1021.0
20260501173715 17 100 3.2 0.0 0.00 0.00 0.00 38 1021.0
20260501173214 17 92 3.2 0.0 0.00 0.00 0.00 38 1021.0
20260501172702 17 53 3.2 0.0 0.00 0.00 0.00 38 1021.0
20260501172209 17 107 3.2 0.0 0.00 0.00 0.00 36 1021.0
20260501171707 17 80 1.6 0.0 0.00 0.00 0.00 36 1021.0
20260501171214 18 84 3.2 0.0 0.00 0.00 0.00 37 1021.5
20260501170718 18 360 4.8 0.0 0.00 0.00 0.00 35 1021.5
20260501170221 18 67 4.8 0.0 0.00 0.00 0.00 36 1021.5
20260501165706 18 78 3.2 0.0 0.00 0.00 0.00 35 1021.5
20260501165217 18 65 3.2 0.0 0.00 0.00 0.00 36 1021.5
20260501164718 19 52 3.2 0.0 0.00 0.00 0.00 35 1021.5
20260501164212 19 84 3.2 0.0 0.00 0.00 0.00 35 1021.5
20260501163723 19 72 4.8 0.0 0.00 0.00 0.00 34 1021.5
20260501163203 19 79 4.8 0.0 0.00 0.00 0.00 35 1021.5
20260501162711 19 53 6.4 0.0 0.00 0.00 0.00 33 1021.4
20260501162214 20 94 4.8 0.0 0.00 0.00 0.00 33 1021.4
20260501161722 20 90 3.2 0.0 0.00 0.00 0.00 33 1021.4
20260501161209 20 82 4.8 0.0 0.00 0.00 0.00 32 1021.4
20260501160707 20 43 4.8 0.0 0.00 0.00 0.00 32 1021.4
20260501160219 20 72 4.8 0.0 0.00 0.00 0.00 32 1021.4
20260501155719 20 77 6.4 0.0 0.00 0.00 0.00 31 1021.3
20260501155220 20 45 6.4 0.0 0.00 0.00 0.00 33 1021.3
20260501154708 21 61 4.8 0.0 0.00 0.00 0.00 32 1021.3
20260501154212 21 355 4.8 0.0 0.00 0.00 0.00 31 1021.3
20260501153715 21 51 4.8 0.0 0.00 0.00 0.00 33 1021.3
20260501153214 21 79 4.8 0.0 0.00 0.00 0.00 31 1021.3
20260501152706 21 82 6.4 0.0 0.00 0.00 0.00 31 1021.3
20260501152220 21 25 6.4 0.0 0.00 0.00 0.00 32 1021.3
20260501151715 21 96 6.4 0.0 0.00 0.00 0.00 31 1021.3
20260501151209 21 81 6.4 0.0 0.00 0.00 0.00 32 1021.5
20260501150222 21 360 8.0 0.0 0.00 0.00 0.00 31 1021.5
20260501145703 21 360 8.0 0.0 0.00 0.00 0.00 32 1021.4
20260501145207 21 64 6.4 0.0 0.00 0.00 0.00 30 1021.4
20260501144710 21 110 4.8 0.0 0.00 0.00 0.00 31 1021.4
20260501144213 21 57 6.4 0.0 0.00 0.00 0.00 31 1021.5
20260501143719 21 55 8.0 0.0 0.00 0.00 0.00 31 1021.5
20260501143223 21 53 6.4 0.0 0.00 0.00 0.00 30 1021.5
20260501142706 21 64 4.8 0.0 0.00 0.00 0.00 30 1021.6
20260501142214 21 63 6.4 0.0 0.00 0.00 0.00 31 1021.6
20260501141718 21 82 4.8 0.0 0.00 0.00 0.00 31 1021.6
20260501141218 21 51 6.4 0.0 0.00 0.00 0.00 32 1021.6
20260501140707 20 360 8.0 0.0 0.00 0.00 0.00 31 1021.6
20260501140215 21 69 8.0 0.0 0.00 0.00 0.00 30 1021.6
20260501135720 21 92 6.4 0.0 0.00 0.00 0.00 32 1021.7
20260501135223 21 79 4.8 0.0 0.00 0.00 0.00 31 1021.7
20260501134711 21 78 4.8 0.0 0.00 0.00 0.00 30 1021.7
20260501134213 21 86 6.4 0.0 0.00 0.00 0.00 31 1021.8
20260501133718 21 17 6.4 0.0 0.00 0.00 0.00 31 1021.8